| time (UTC) | temp F | wind direction | speed MPH | gust MPH | rain 1hr in | rain 24hr in | rain mn in | humidity % | barometer mb |
| 20260904005531 | 85 | 130 | 0.0 | 1.0 | 0.00 | 0.00 | 0.00 | 63 | 1007.8 |
| 20260904005026 | 86 | 129 | 0.0 | 0.0 | 0.00 | 0.00 | 0.00 | 62 | 1007.5 |
| 20260904004522 | 87 | 129 | 0.0 | 0.0 | 0.00 | 0.00 | 0.00 | 61 | 1007.6 |
| 20260904004022 | 87 | 131 | 0.0 | 0.0 | 0.00 | 0.00 | 0.00 | 59 | 1007.6 |
| 20260904003518 | 89 | 130 | 0.0 | 0.0 | 0.00 | 0.00 | 0.00 | 57 | 1007.6 |
| 20260904003013 | 90 | 129 | 0.0 | 1.0 | 0.00 | 0.00 | 0.00 | 55 | 1007.4 |
| 20260904002510 | 91 | 134 | 0.0 | 1.0 | 0.00 | 0.00 | 0.00 | 53 | 1007.4 |
| 20260904002009 | 91 | 120 | 0.0 | 0.0 | 0.00 | 0.00 | 0.00 | 52 | 1007.6 |
| 20260904001505 | 91 | 124 | 0.0 | 1.0 | 0.00 | 0.00 | 0.00 | 51 | 1007.3 |
| 20260904001004 | 92 | 116 | 0.0 | 1.0 | 0.00 | 0.00 | 0.00 | 50 | 1007.6 |
| 20260904000503 | 92 | 117 | 0.0 | 0.0 | 0.00 | 0.00 | 0.00 | 50 | 1007.3 |
| 20260903235959 | 93 | 119 | 1.0 | 2.0 | 0.00 | 0.00 | 0.00 | 49 | 1007.6 |
| 20260903235455 | 93 | 101 | 2.0 | 2.0 | 0.00 | 0.00 | 0.00 | 49 | 1007.4 |
| 20260903234954 | 94 | 113 | 1.0 | 1.0 | 0.00 | 0.00 | 0.00 | 49 | 1007.5 |
| 20260903234450 | 94 | 106 | 2.0 | 2.0 | 0.00 | 0.00 | 0.00 | 47 | 1007.3 |
| 20260903233946 | 95 | 90 | 3.0 | 3.0 | 0.00 | 0.00 | 0.00 | 46 | 1007.4 |
| 20260903233442 | 96 | 61 | 1.0 | 2.0 | 0.00 | 0.00 | 0.00 | 45 | 1007.3 |
| 20260903232937 | 97 | 71 | 1.0 | 2.0 | 0.00 | 0.00 | 0.00 | 44 | 1007.2 |
| 20260903232432 | 97 | 134 | 0.0 | 0.0 | 0.00 | 0.00 | 0.00 | 44 | 1007.2 |
| 20260903231932 | 97 | 169 | 2.0 | 2.0 | 0.00 | 0.00 | 0.00 | 43 | 1007.3 |
| 20260903231427 | 98 | 222 | 2.0 | 3.0 | 0.00 | 0.00 | 0.00 | 42 | 1007.3 |
| 20260903230921 | 98 | 77 | 1.0 | 1.0 | 0.00 | 0.00 | 0.00 | 43 | 1007.3 |
| 20260903230417 | 98 | 120 | 1.0 | 2.0 | 0.00 | 0.00 | 0.00 | 42 | 1007.4 |
| 20260903225914 | 97 | 130 | 1.0 | 1.0 | 0.00 | 0.00 | 0.00 | 44 | 1007.2 |
| 20260903225409 | 98 | 184 | 2.0 | 2.0 | 0.00 | 0.00 | 0.00 | 42 | 1007.2 |
| 20260903224905 | 99 | 60 | 3.0 | 3.0 | 0.00 | 0.00 | 0.00 | 42 | 1007.4 |
| 20260903224401 | 98 | 177 | 0.0 | 1.0 | 0.00 | 0.00 | 0.00 | 43 | 1007.3 |
| 20260903223857 | 97 | 80 | 1.0 | 2.0 | 0.00 | 0.00 | 0.00 | 44 | 1007.3 |
| 20260903223355 | 98 | 152 | 2.0 | 2.0 | 0.00 | 0.00 | 0.00 | 43 | 1007.5 |
| 20260903222850 | 99 | 119 | 3.0 | 5.0 | 0.00 | 0.00 | 0.00 | 41 | 1007.3 |
| 20260903222350 | 99 | 186 | 2.0 | 2.0 | 0.00 | 0.00 | 0.00 | 42 | 1007.3 |
| 20260903221845 | 98 | 96 | 1.0 | 1.0 | 0.00 | 0.00 | 0.00 | 43 | 1007.4 |
| 20260903221344 | 97 | 99 | 1.0 | 1.0 | 0.00 | 0.00 | 0.00 | 43 | 1007.3 |
| 20260903220842 | 98 | 64 | 1.0 | 2.0 | 0.00 | 0.00 | 0.00 | 43 | 1007.3 |
| 20260903220336 | 98 | 108 | 2.0 | 2.0 | 0.00 | 0.00 | 0.00 | 42 | 1007.2 |
| 20260903215834 | 99 | 64 | 2.0 | 2.0 | 0.00 | 0.00 | 0.00 | 41 | 1007.5 |
| 20260903215331 | 101 | 95 | 2.0 | 3.0 | 0.00 | 0.00 | 0.00 | 39 | 1007.3 |
| 20260903214829 | 101 | 62 | 2.0 | 3.0 | 0.00 | 0.00 | 0.00 | 39 | 1007.4 |
| 20260903214320 | 102 | 101 | 2.0 | 2.0 | 0.00 | 0.00 | 0.00 | 37 | 1007.4 |
| 20260903213814 | 102 | 121 | 1.0 | 2.0 | 0.00 | 0.00 | 0.00 | 39 | 1007.4 |
| 20260903213309 | 102 | 142 | 1.0 | 2.0 | 0.00 | 0.00 | 0.00 | 37 | 1007.6 |
| 20260903212805 | 102 | 106 | 3.0 | 3.0 | 0.00 | 0.00 | 0.00 | 39 | 1007.7 |
| 20260903212302 | 101 | 134 | 1.0 | 1.0 | 0.00 | 0.00 | 0.00 | 39 | 1007.5 |
| 20260903211800 | 100 | 329 | 2.0 | 3.0 | 0.00 | 0.00 | 0.00 | 40 | 1007.6 |
| 20260903211257 | 101 | 64 | 2.0 | 2.0 | 0.00 | 0.00 | 0.00 | 39 | 1007.5 |
| 20260903210752 | 102 | 91 | 2.0 | 5.0 | 0.00 | 0.00 | 0.00 | 38 | 1007.4 |
| 20260903210248 | 102 | 238 | 1.0 | 2.0 | 0.00 | 0.00 | 0.00 | 38 | 1007.6 |
| 20260903205747 | 101 | 310 | 2.0 | 3.0 | 0.00 | 0.00 | 0.00 | 38 | 1007.6 |
| 20260903205247 | 102 | 148 | 2.0 | 2.0 | 0.00 | 0.00 | 0.00 | 38 | 1007.7 |
| 20260903204742 | 102 | 136 | 1.0 | 1.0 | 0.00 | 0.00 | 0.00 | 38 | 1007.7 |
| 20260903204238 | 101 | 156 | 2.0 | 2.0 | 0.00 | 0.00 | 0.00 | 38 | 1007.6 |
| 20260903203734 | 100 | 48 | 1.0 | 2.0 | 0.00 | 0.00 | 0.00 | 40 | 1008.1 |
| 20260903203230 | 99 | 80 | 1.0 | 1.0 | 0.00 | 0.00 | 0.00 | 39 | 1008.0 |
| 20260903202723 | 100 | 68 | 5.0 | 6.0 | 0.00 | 0.00 | 0.00 | 38 | 1008.1 |
| 20260903202220 | 100 | 39 | 3.0 | 3.0 | 0.00 | 0.00 | 0.00 | 37 | 1007.9 |
| 20260903201719 | 101 | 250 | 3.0 | 5.0 | 0.00 | 0.00 | 0.00 | 38 | 1007.8 |
| 20260903201214 | 101 | 142 | 1.0 | 1.0 | 0.00 | 0.00 | 0.00 | 38 | 1008.0 |
| 20260903200708 | 101 | 139 | 1.0 | 2.0 | 0.00 | 0.00 | 0.00 | 38 | 1008.1 |
| 20260903200204 | 101 | 294 | 3.0 | 3.0 | 0.00 | 0.00 | 0.00 | 39 | 1008.2 |
| 20260903195659 | 101 | 235 | 3.0 | 5.0 | 0.00 | 0.00 | 0.00 | 38 | 1008.1 |
| 20260903195155 | 100 | 147 | 0.0 | 1.0 | 0.00 | 0.00 | 0.00 | 39 | 1008.2 |
| 20260903194654 | 99 | 75 | 1.0 | 2.0 | 0.00 | 0.00 | 0.00 | 39 | 1008.4 |
| 20260903194150 | 100 | 192 | 3.0 | 3.0 | 0.00 | 0.00 | 0.00 | 39 | 1008.4 |
| 20260903193645 | 101 | 185 | 3.0 | 5.0 | 0.00 | 0.00 | 0.00 | 39 | 1008.4 |
| 20260903193140 | 101 | 298 | 4.0 | 6.0 | 0.00 | 0.00 | 0.00 | 39 | 1008.5 |
| 20260903192637 | 100 | 78 | 3.0 | 3.0 | 0.00 | 0.00 | 0.00 | 39 | 1008.6 |
| 20260903192132 | 100 | 158 | 1.0 | 1.0 | 0.00 | 0.00 | 0.00 | 41 | 1008.6 |
| 20260903191628 | 99 | 158 | 2.0 | 2.0 | 0.00 | 0.00 | 0.00 | 41 | 1008.7 |
| 20260903191127 | 99 | 171 | 2.0 | 5.0 | 0.00 | 0.00 | 0.00 | 40 | 1008.7 |
| 20260903190627 | 100 | 77 | 3.0 | 3.0 | 0.00 | 0.00 | 0.00 | 40 | 1009.0 |
| 20260903190122 | 99 | 65 | 2.0 | 2.0 | 0.00 | 0.00 | 0.00 | 42 | 1009.0 |
| 20260903185617 | 98 | 90 | 1.0 | 1.0 | 0.00 | 0.00 | 0.00 | 42 | 1009.0 |
| 20260903185112 | 99 | 127 | 1.0 | 2.0 | 0.00 | 0.00 | 0.00 | 42 | 1009.0 |
| 20260903184608 | 99 | 132 | 1.0 | 1.0 | 0.00 | 0.00 | 0.00 | 41 | 1009.1 |
| 20260903184108 | 98 | 189 | 3.0 | 5.0 | 0.00 | 0.00 | 0.00 | 42 | 1008.9 |
| 20260903183608 | 98 | 207 | 2.0 | 2.0 | 0.00 | 0.00 | 0.00 | 43 | 1008.9 |
| 20260903183103 | 97 | 102 | 3.0 | 5.0 | 0.00 | 0.00 | 0.00 | 42 | 1009.2 |
| 20260903182601 | 97 | 90 | 1.0 | 1.0 | 0.00 | 0.00 | 0.00 | 43 | 1009.2 |
| 20260903182059 | 98 | 131 | 0.0 | 1.0 | 0.00 | 0.00 | 0.00 | 43 | 1009.2 |
| 20260903181556 | 97 | 167 | 4.0 | 5.0 | 0.00 | 0.00 | 0.00 | 44 | 1009.5 |
| 20260903181051 | 96 | 86 | 2.0 | 2.0 | 0.00 | 0.00 | 0.00 | 45 | 1009.5 |
| 20260903180546 | 96 | 123 | 2.0 | 2.0 | 0.00 | 0.00 | 0.00 | 46 | 1009.4 |
| 20260903180041 | 96 | 107 | 1.0 | 2.0 | 0.00 | 0.00 | 0.00 | 47 | 1009.6 |
| 20260903175540 | 96 | 312 | 3.0 | 6.0 | 0.00 | 0.00 | 0.00 | 46 | 1009.7 |
| 20260903175040 | 96 | 340 | 4.0 | 6.0 | 0.00 | 0.00 | 0.00 | 47 | 1009.6 |
| 20260903174535 | 96 | 134 | 1.0 | 2.0 | 0.00 | 0.00 | 0.00 | 47 | 1009.9 |
| 20260903174029 | 95 | 228 | 1.0 | 2.0 | 0.00 | 0.00 | 0.00 | 48 | 1009.9 |
| 20260903173523 | 95 | 322 | 4.0 | 5.0 | 0.00 | 0.00 | 0.00 | 48 | 1009.9 |
| 20260903173020 | 95 | 270 | 1.0 | 2.0 | 0.00 | 0.00 | 0.00 | 48 | 1009.9 |
| 20260903172514 | 95 | 122 | 1.0 | 1.0 | 0.00 | 0.00 | 0.00 | 48 | 1009.9 |
| 20260903172010 | 94 | 72 | 2.0 | 2.0 | 0.00 | 0.00 | 0.00 | 48 | 1010.0 |
| 20260903171505 | 93 | 205 | 2.0 | 2.0 | 0.00 | 0.00 | 0.00 | 51 | 1010.1 |
| 20260903171000 | 93 | 114 | 1.0 | 2.0 | 0.00 | 0.00 | 0.00 | 53 | 1010.2 |
| 20260903170459 | 93 | 107 | 2.0 | 2.0 | 0.00 | 0.00 | 0.00 | 54 | 1010.1 |
| 20260903165954 | 92 | 343 | 3.0 | 3.0 | 0.00 | 0.00 | 0.00 | 55 | 1010.1 |
| 20260903165453 | 92 | 269 | 3.0 | 5.0 | 0.00 | 0.00 | 0.00 | 55 | 1010.3 |
| 20260903164948 | 92 | 151 | 1.0 | 2.0 | 0.00 | 0.00 | 0.00 | 56 | 1010.2 |
| 20260903164444 | 91 | 1 | 2.0 | 5.0 | 0.00 | 0.00 | 0.00 | 56 | 1010.5 |
| 20260903163943 | 91 | 11 | 3.0 | 3.0 | 0.00 | 0.00 | 0.00 | 57 | 1010.5 |
| 20260903163439 | 91 | 188 | 6.0 | 9.0 | 0.00 | 0.00 | 0.00 | 57 | 1010.6 |
| 20260903162935 | 90 | 294 | 3.0 | 3.0 | 0.00 | 0.00 | 0.00 | 59 | 1010.8 |
| 20260903162431 | 91 | 165 | 5.0 | 8.0 | 0.00 | 0.00 | 0.00 | 58 | 1010.7 |
| 20260903161926 | 90 | 270 | 5.0 | 6.0 | 0.00 | 0.00 | 0.00 | 59 | 1010.7 |
| 20260903161421 | 90 | 199 | 4.0 | 8.0 | 0.00 | 0.00 | 0.00 | 59 | 1010.7 |
| 20260903160918 | 90 | 286 | 5.0 | 8.0 | 0.00 | 0.00 | 0.00 | 58 | 1010.9 |
| 20260903160416 | 90 | 175 | 3.0 | 5.0 | 0.00 | 0.00 | 0.00 | 56 | 1010.9 |
| 20260903155915 | 90 | 44 | 1.0 | 1.0 | 0.00 | 0.00 | 0.00 | 55 | 1010.8 |
| 20260903155411 | 90 | 57 | 3.0 | 7.0 | 0.00 | 0.00 | 0.00 | 56 | 1010.6 |
| 20260903154906 | 90 | 330 | 3.0 | 3.0 | 0.00 | 0.00 | 0.00 | 56 | 1010.9 |
| 20260903154402 | 90 | 193 | 7.0 | 9.0 | 0.00 | 0.00 | 0.00 | 57 | 1010.7 |
| 20260903153902 | 90 | 53 | 3.0 | 3.0 | 0.00 | 0.00 | 0.00 | 57 | 1010.8 |
| 20260903153358 | 89 | 178 | 3.0 | 5.0 | 0.00 | 0.00 | 0.00 | 59 | 1010.8 |
| 20260903152854 | 89 | 136 | 3.0 | 3.0 | 0.00 | 0.00 | 0.00 | 60 | 1010.8 |
| 20260903152350 | 89 | 223 | 3.0 | 3.0 | 0.00 | 0.00 | 0.00 | 60 | 1011.0 |
| 20260903151845 | 88 | 344 | 3.0 | 5.0 | 0.00 | 0.00 | 0.00 | 62 | 1010.9 |
| 20260903151340 | 88 | 138 | 1.0 | 1.0 | 0.00 | 0.00 | 0.00 | 62 | 1010.9 |
| 20260903150840 | 88 | 84 | 2.0 | 2.0 | 0.00 | 0.00 | 0.00 | 63 | 1010.7 |
| 20260903150335 | 87 | 164 | 3.0 | 3.0 | 0.00 | 0.00 | 0.00 | 64 | 1010.8 |
| 20260903145830 | 87 | 121 | 3.0 | 3.0 | 0.00 | 0.00 | 0.00 | 66 | 1010.6 |
| 20260903145325 | 86 | 334 | 3.0 | 5.0 | 0.00 | 0.00 | 0.00 | 67 | 1010.7 |
| 20260903144824 | 86 | 183 | 2.0 | 3.0 | 0.00 | 0.00 | 0.00 | 68 | 1010.8 |
| 20260903144320 | 86 | 231 | 3.0 | 3.0 | 0.00 | 0.00 | 0.00 | 69 | 1010.8 |
| 20260903143815 | 85 | 141 | 1.0 | 1.0 | 0.00 | 0.00 | 0.00 | 70 | 1011.1 |
| 20260903143312 | 85 | 277 | 6.0 | 13.0 | 0.00 | 0.00 | 0.00 | 71 | 1011.0 |
| 20260903142807 | 84 | 260 | 3.0 | 5.0 | 0.00 | 0.00 | 0.00 | 71 | 1011.1 |
| 20260903142306 | 84 | 220 | 3.0 | 5.0 | 0.00 | 0.00 | 0.00 | 73 | 1010.9 |
| 20260903141758 | 83 | 132 | 1.0 | 2.0 | 0.00 | 0.00 | 0.00 | 74 | 1010.9 |
| 20260903141255 | 82 | 183 | 0.0 | 1.0 | 0.00 | 0.00 | 0.00 | 76 | 1011.0 |
| 20260903140749 | 82 | 149 | 1.0 | 1.0 | 0.00 | 0.00 | 0.00 | 77 | 1010.9 |
| 20260903140244 | 82 | 176 | 2.0 | 3.0 | 0.00 | 0.00 | 0.00 | 78 | 1011.1 |
| 20260903135740 | 82 | 140 | 0.0 | 1.0 | 0.00 | 0.00 | 0.00 | 78 | 1011.1 |
| 20260903135235 | 81 | 133 | 0.0 | 0.0 | 0.00 | 0.00 | 0.00 | 78 | 1011.1 |
| 20260903134734 | 81 | 135 | 1.0 | 1.0 | 0.00 | 0.00 | 0.00 | 78 | 1011.3 |
| 20260903134230 | 82 | 129 | 0.0 | 1.0 | 0.00 | 0.00 | 0.00 | 77 | 1011.3 |
| 20260903133727 | 82 | 130 | 1.0 | 1.0 | 0.00 | 0.00 | 0.00 | 77 | 1011.3 |
| 20260903133223 | 82 | 147 | 0.0 | 1.0 | 0.00 | 0.00 | 0.00 | 78 | 1011.4 |
| 20260903132723 | 80 | 131 | 1.0 | 1.0 | 0.00 | 0.00 | 0.00 | 79 | 1011.2 |
| 20260903132223 | 80 | 133 | 0.0 | 1.0 | 0.00 | 0.00 | 0.00 | 82 | 1011.0 |
| 20260903131718 | 79 | 121 | 0.0 | 0.0 | 0.00 | 0.00 | 0.00 | 82 | 1011.5 |
| 20260903131213 | 78 | 117 | 0.0 | 0.0 | 0.00 | 0.00 | 0.00 | 84 | 1011.0 |
| 20260903130708 | 77 | 113 | 1.0 | 1.0 | 0.00 | 0.00 | 0.00 | 84 | 1011.0 |
| 20260903130208 | 76 | 114 | 0.0 | 0.0 | 0.00 | 0.00 | 0.00 | 87 | 1010.8 |
| 20260903125706 | 75 | 118 | 0.0 | 0.0 | 0.00 | 0.00 | 0.00 | 90 | 1011.0 |
| 20260903125201 | 73 | 118 | 0.0 | 0.0 | 0.00 | 0.00 | 0.00 | 98 | 1011.0 |
| 20260903124656 | 72 | 115 | 0.0 | 0.0 | 0.00 | 0.00 | 0.00 | 99 | 1010.9 |
| 20260903124155 | 70 | 116 | 0.0 | 0.0 | 0.00 | 0.00 | 0.00 | 99 | 1010.9 |
| 20260903123654 | 69 | 113 | 0.0 | 0.0 | 0.00 | 0.00 | 0.00 | 99 | 1011.1 |
| 20260903123154 | 68 | 119 | 0.0 | 0.0 | 0.00 | 0.00 | 0.00 | 99 | 1011.0 |
| 20260903122653 | 68 | 116 | 0.0 | 0.0 | 0.00 | 0.00 | 0.00 | 99 | 1010.8 |
| 20260903122148 | 68 | 122 | 0.0 | 0.0 | 0.00 | 0.00 | 0.00 | 99 | 1011.0 |
| 20260903121647 | 67 | 122 | 0.0 | 0.0 | 0.00 | 0.00 | 0.00 | 99 | 1010.9 |
| 20260903121143 | 67 | 122 | 0.0 | 0.0 | 0.00 | 0.00 | 0.00 | 99 | 1011.0 |
| 20260903120642 | 67 | 121 | 0.0 | 0.0 | 0.00 | 0.00 | 0.00 | 99 | 1010.9 |
| 20260903120137 | 67 | 122 | 0.0 | 0.0 | 0.00 | 0.00 | 0.00 | 99 | 1010.7 |
| 20260903115635 | 67 | 122 | 0.0 | 0.0 | 0.00 | 0.00 | 0.00 | 99 | 1010.9 |
| 20260903115130 | 67 | 122 | 0.0 | 0.0 | 0.00 | 0.00 | 0.00 | 99 | 1011.0 |
| 20260903114626 | 67 | 121 | 0.0 | 0.0 | 0.00 | 0.00 | 0.00 | 99 | 1010.8 |
| 20260903114121 | 67 | 121 | 0.0 | 0.0 | 0.00 | 0.00 | 0.00 | 99 | 1010.5 |
| 20260903113616 | 67 | 121 | 0.0 | 0.0 | 0.00 | 0.00 | 0.00 | 99 | 1010.6 |
| 20260903113112 | 67 | 121 | 0.0 | 0.0 | 0.00 | 0.00 | 0.00 | 99 | 1010.8 |
| 20260903112608 | 67 | 122 | 0.0 | 0.0 | 0.00 | 0.00 | 0.00 | 99 | 1010.8 |
| 20260903112108 | 67 | 121 | 0.0 | 0.0 | 0.00 | 0.00 | 0.00 | 99 | 1010.7 |
| 20260903111607 | 67 | 121 | 0.0 | 0.0 | 0.00 | 0.00 | 0.00 | 99 | 1010.7 |
| 20260903111057 | 67 | 122 | 0.0 | 0.0 | 0.00 | 0.00 | 0.00 | 99 | 1010.6 |
| 20260903110553 | 67 | 122 | 0.0 | 0.0 | 0.00 | 0.00 | 0.00 | 99 | 1010.7 |
| 20260903110048 | 67 | 122 | 0.0 | 0.0 | 0.00 | 0.00 | 0.00 | 99 | 1010.6 |
| 20260903105543 | 67 | 125 | 0.0 | 0.0 | 0.00 | 0.00 | 0.00 | 99 | 1010.5 |
| 20260903105038 | 67 | 125 | 0.0 | 0.0 | 0.00 | 0.00 | 0.00 | 99 | 1010.6 |
| 20260903104537 | 67 | 123 | 0.0 | 0.0 | 0.00 | 0.00 | 0.00 | 99 | 1010.5 |
| 20260903104033 | 67 | 123 | 0.0 | 0.0 | 0.00 | 0.00 | 0.00 | 99 | 1010.4 |
| 20260903103529 | 67 | 122 | 0.0 | 0.0 | 0.00 | 0.00 | 0.00 | 99 | 1010.5 |
| 20260903103025 | 68 | 119 | 0.0 | 0.0 | 0.00 | 0.00 | 0.00 | 99 | 1010.4 |
| 20260903102520 | 67 | 119 | 0.0 | 0.0 | 0.00 | 0.00 | 0.00 | 99 | 1010.3 |
| 20260903102019 | 68 | 121 | 0.0 | 0.0 | 0.00 | 0.00 | 0.00 | 99 | 1010.4 |
| 20260903101514 | 68 | 121 | 0.0 | 0.0 | 0.00 | 0.00 | 0.00 | 99 | 1010.4 |
| 20260903101010 | 68 | 118 | 0.0 | 0.0 | 0.00 | 0.00 | 0.00 | 99 | 1010.2 |
| 20260903100504 | 68 | 121 | 0.0 | 0.0 | 0.00 | 0.00 | 0.00 | 99 | 1010.4 |
| 20260903100001 | 68 | 121 | 0.0 | 0.0 | 0.00 | 0.00 | 0.00 | 99 | 1010.2 |
| 20260903095455 | 68 | 121 | 0.0 | 0.0 | 0.00 | 0.00 | 0.00 | 99 | 1010.3 |
| 20260903094951 | 68 | 121 | 0.0 | 0.0 | 0.00 | 0.00 | 0.00 | 99 | 1010.4 |
| 20260903094450 | 68 | 121 | 0.0 | 0.0 | 0.00 | 0.00 | 0.00 | 99 | 1010.4 |
| 20260903093946 | 68 | 121 | 0.0 | 0.0 | 0.00 | 0.00 | 0.00 | 99 | 1010.2 |
| 20260903093441 | 68 | 121 | 0.0 | 0.0 | 0.00 | 0.00 | 0.00 | 99 | 1010.2 |
| 20260903092937 | 68 | 122 | 0.0 | 0.0 | 0.00 | 0.00 | 0.00 | 99 | 1010.2 |
| 20260903092437 | 68 | 118 | 0.0 | 0.0 | 0.00 | 0.00 | 0.00 | 99 | 1010.2 |
| 20260903091936 | 68 | 118 | 0.0 | 0.0 | 0.00 | 0.00 | 0.00 | 99 | 1010.3 |
| 20260903091434 | 68 | 118 | 0.0 | 0.0 | 0.00 | 0.00 | 0.00 | 99 | 1010.0 |
| 20260903090929 | 68 | 122 | 0.0 | 0.0 | 0.00 | 0.00 | 0.00 | 99 | 1010.2 |
| 20260903090425 | 68 | 122 | 0.0 | 0.0 | 0.00 | 0.00 | 0.00 | 99 | 1010.2 |
| 20260903085923 | 68 | 122 | 0.0 | 0.0 | 0.00 | 0.00 | 0.00 | 99 | 1010.1 |
| 20260903085422 | 68 | 123 | 0.0 | 0.0 | 0.00 | 0.00 | 0.00 | 98 | 1010.2 |
| 20260903084922 | 68 | 123 | 0.0 | 0.0 | 0.00 | 0.00 | 0.00 | 98 | 1010.1 |
| 20260903084420 | 68 | 123 | 0.0 | 0.0 | 0.00 | 0.00 | 0.00 | 98 | 1010.2 |
| 20260903083916 | 68 | 122 | 0.0 | 0.0 | 0.00 | 0.00 | 0.00 | 98 | 1010.4 |
| 20260903083412 | 68 | 123 | 0.0 | 0.0 | 0.00 | 0.00 | 0.00 | 98 | 1010.3 |
| 20260903082911 | 68 | 122 | 0.0 | 0.0 | 0.00 | 0.00 | 0.00 | 98 | 1010.5 |
| 20260903082406 | 68 | 122 | 0.0 | 0.0 | 0.00 | 0.00 | 0.00 | 97 | 1010.2 |
| 20260903081901 | 68 | 122 | 0.0 | 0.0 | 0.00 | 0.00 | 0.00 | 97 | 1010.4 |
| 20260903081356 | 68 | 122 | 0.0 | 0.0 | 0.00 | 0.00 | 0.00 | 97 | 1010.2 |
| 20260903080852 | 69 | 122 | 0.0 | 0.0 | 0.00 | 0.00 | 0.00 | 97 | 1010.3 |
| 20260903080349 | 69 | 122 | 0.0 | 0.0 | 0.00 | 0.00 | 0.00 | 96 | 1010.3 |
| 20260903075849 | 69 | 122 | 0.0 | 0.0 | 0.00 | 0.00 | 0.00 | 96 | 1010.3 |
| 20260903075345 | 69 | 122 | 0.0 | 0.0 | 0.00 | 0.00 | 0.00 | 96 | 1010.1 |
| 20260903074844 | 69 | 122 | 0.0 | 0.0 | 0.00 | 0.00 | 0.00 | 96 | 1010.0 |
| 20260903074338 | 69 | 122 | 0.0 | 0.0 | 0.00 | 0.00 | 0.00 | 96 | 1010.3 |
| 20260903073834 | 69 | 122 | 0.0 | 0.0 | 0.00 | 0.00 | 0.00 | 96 | 1010.4 |
| 20260903073329 | 69 | 122 | 0.0 | 0.0 | 0.00 | 0.00 | 0.00 | 96 | 1010.1 |
| 20260903072825 | 69 | 122 | 0.0 | 0.0 | 0.00 | 0.00 | 0.00 | 95 | 1010.2 |
| 20260903072321 | 69 | 122 | 0.0 | 0.0 | 0.00 | 0.00 | 0.00 | 95 | 1010.2 |
| 20260903071818 | 69 | 122 | 0.0 | 0.0 | 0.00 | 0.00 | 0.00 | 95 | 1010.1 |
| 20260903071314 | 69 | 122 | 0.0 | 0.0 | 0.00 | 0.00 | 0.00 | 95 | 1010.3 |
| 20260903070814 | 70 | 122 | 0.0 | 0.0 | 0.00 | 0.00 | 0.00 | 95 | 1010.2 |
| 20260903070309 | 70 | 123 | 0.0 | 0.0 | 0.00 | 0.00 | 0.00 | 94 | 1010.5 |
| 20260903065804 | 70 | 123 | 0.0 | 0.0 | 0.00 | 0.00 | 0.00 | 94 | 1010.2 |
| 20260903065306 | 70 | 124 | 0.0 | 0.0 | 0.00 | 0.00 | 0.00 | 94 | 1010.2 |
| 20260903064802 | 70 | 124 | 0.0 | 0.0 | 0.00 | 0.00 | 0.00 | 94 | 1010.2 |
| 20260903064258 | 70 | 125 | 0.0 | 0.0 | 0.00 | 0.00 | 0.00 | 94 | 1010.3 |
| 20260903063749 | 70 | 126 | 0.0 | 0.0 | 0.00 | 0.00 | 0.00 | 93 | 1010.4 |
| 20260903063248 | 70 | 122 | 0.0 | 0.0 | 0.00 | 0.00 | 0.00 | 93 | 1010.3 |
| 20260903062740 | 70 | 122 | 0.0 | 0.0 | 0.00 | 0.00 | 0.00 | 93 | 1010.3 |
| 20260903062239 | 70 | 122 | 0.0 | 0.0 | 0.00 | 0.00 | 0.00 | 92 | 1010.2 |
| 20260903061735 | 70 | 122 | 0.0 | 0.0 | 0.00 | 0.00 | 0.00 | 92 | 1010.2 |
| 20260903061233 | 71 | 123 | 0.0 | 0.0 | 0.00 | 0.00 | 0.00 | 92 | 1010.4 |
| 20260903060729 | 71 | 123 | 0.0 | 0.0 | 0.00 | 0.00 | 0.00 | 92 | 1010.1 |
| 20260903060229 | 71 | 125 | 0.0 | 0.0 | 0.00 | 0.00 | 0.00 | 92 | 1010.1 |
| 20260903055726 | 71 | 125 | 0.0 | 0.0 | 0.00 | 0.00 | 0.00 | 92 | 1010.1 |
| 20260903055225 | 71 | 125 | 0.0 | 0.0 | 0.00 | 0.00 | 0.00 | 91 | 1010.3 |
| 20260903054720 | 71 | 125 | 0.0 | 0.0 | 0.00 | 0.00 | 0.00 | 90 | 1010.3 |
| 20260903054215 | 71 | 125 | 0.0 | 0.0 | 0.00 | 0.00 | 0.00 | 90 | 1010.2 |
| 20260903053712 | 71 | 125 | 0.0 | 0.0 | 0.00 | 0.00 | 0.00 | 90 | 1010.4 |
| 20260903053207 | 71 | 123 | 0.0 | 0.0 | 0.00 | 0.00 | 0.00 | 89 | 1010.1 |
| 20260903052703 | 71 | 123 | 0.0 | 0.0 | 0.00 | 0.00 | 0.00 | 89 | 1010.3 |
| 20260903052159 | 71 | 123 | 0.0 | 0.0 | 0.00 | 0.00 | 0.00 | 88 | 1010.1 |
| 20260903051658 | 71 | 123 | 0.0 | 0.0 | 0.00 | 0.00 | 0.00 | 88 | 1010.3 |
| 20260903051154 | 72 | 123 | 0.0 | 0.0 | 0.00 | 0.00 | 0.00 | 88 | 1010.1 |
| 20260903050649 | 72 | 123 | 0.0 | 0.0 | 0.00 | 0.00 | 0.00 | 87 | 1010.0 |
| 20260903050138 | 72 | 123 | 0.0 | 0.0 | 0.00 | 0.00 | 0.00 | 87 | 1010.2 |
| 20260903045637 | 72 | 123 | 0.0 | 0.0 | 0.00 | 0.00 | 0.00 | 86 | 1009.9 |
| 20260903045134 | 72 | 123 | 0.0 | 0.0 | 0.00 | 0.00 | 0.00 | 86 | 1010.1 |
| 20260903044629 | 73 | 123 | 0.0 | 0.0 | 0.00 | 0.00 | 0.00 | 86 | 1010.1 |
| 20260903044125 | 73 | 125 | 0.0 | 0.0 | 0.00 | 0.00 | 0.00 | 86 | 1010.0 |
| 20260903043621 | 73 | 125 | 0.0 | 0.0 | 0.00 | 0.00 | 0.00 | 85 | 1010.1 |
| 20260903043121 | 73 | 125 | 0.0 | 0.0 | 0.00 | 0.00 | 0.00 | 85 | 1010.0 |
| 20260903042620 | 73 | 125 | 0.0 | 0.0 | 0.00 | 0.00 | 0.00 | 85 | 1010.0 |
| 20260903042115 | 73 | 125 | 0.0 | 0.0 | 0.00 | 0.00 | 0.00 | 84 | 1010.0 |
| 20260903041612 | 73 | 124 | 0.0 | 0.0 | 0.00 | 0.00 | 0.00 | 84 | 1010.0 |
| 20260903041107 | 73 | 123 | 0.0 | 0.0 | 0.00 | 0.00 | 0.00 | 83 | 1009.9 |
| 20260903040606 | 74 | 124 | 0.0 | 0.0 | 0.00 | 0.00 | 0.00 | 83 | 1010.1 |
| 20260903040104 | 74 | 125 | 0.0 | 0.0 | 0.00 | 0.00 | 0.00 | 82 | 1010.0 |
| 20260903035604 | 74 | 125 | 0.0 | 0.0 | 0.00 | 0.00 | 0.00 | 82 | 1010.1 |
| 20260903035100 | 74 | 125 | 0.0 | 0.0 | 0.00 | 0.00 | 0.00 | 82 | 1009.9 |
| 20260903034554 | 74 | 125 | 0.0 | 0.0 | 0.00 | 0.00 | 0.00 | 81 | 1010.1 |
| 20260903034050 | 74 | 125 | 0.0 | 0.0 | 0.00 | 0.00 | 0.00 | 81 | 1009.9 |
| 20260903033545 | 75 | 125 | 0.0 | 0.0 | 0.00 | 0.00 | 0.00 | 81 | 1009.8 |
| 20260903033040 | 75 | 125 | 0.0 | 0.0 | 0.00 | 0.00 | 0.00 | 80 | 1009.8 |
| 20260903032535 | 75 | 125 | 0.0 | 0.0 | 0.00 | 0.00 | 0.00 | 79 | 1009.7 |
| 20260903032030 | 75 | 125 | 0.0 | 0.0 | 0.00 | 0.00 | 0.00 | 79 | 1009.8 |
| 20260903031530 | 75 | 125 | 0.0 | 0.0 | 0.00 | 0.00 | 0.00 | 79 | 1009.7 |
| 20260903031025 | 76 | 125 | 0.0 | 0.0 | 0.00 | 0.00 | 0.00 | 78 | 1009.7 |
| 20260903030521 | 76 | 124 | 0.0 | 0.0 | 0.00 | 0.00 | 0.00 | 77 | 1009.8 |
| 20260903030017 | 76 | 125 | 0.0 | 0.0 | 0.00 | 0.00 | 0.00 | 77 | 1009.7 |
| 20260903025512 | 76 | 125 | 0.0 | 0.0 | 0.00 | 0.00 | 0.00 | 77 | 1009.7 |
| 20260903025008 | 76 | 125 | 0.0 | 0.0 | 0.00 | 0.00 | 0.00 | 76 | 1009.7 |
| 20260903024507 | 77 | 124 | 0.0 | 0.0 | 0.00 | 0.00 | 0.00 | 76 | 1009.6 |
| 20260903024001 | 77 | 122 | 0.0 | 0.0 | 0.00 | 0.00 | 0.00 | 76 | 1009.5 |
| 20260903023457 | 77 | 123 | 0.0 | 0.0 | 0.00 | 0.00 | 0.00 | 75 | 1009.5 |
| 20260903022952 | 77 | 125 | 0.0 | 0.0 | 0.00 | 0.00 | 0.00 | 75 | 1009.3 |
| 20260903022451 | 77 | 125 | 0.0 | 0.0 | 0.00 | 0.00 | 0.00 | 74 | 1009.5 |
| 20260903021949 | 78 | 125 | 0.0 | 0.0 | 0.00 | 0.00 | 0.00 | 74 | 1009.4 |
| 20260903021445 | 78 | 128 | 0.0 | 0.0 | 0.00 | 0.00 | 0.00 | 73 | 1009.2 |
| 20260903020940 | 78 | 125 | 0.0 | 0.0 | 0.00 | 0.00 | 0.00 | 73 | 1009.1 |
| 20260903020436 | 78 | 125 | 0.0 | 0.0 | 0.00 | 0.00 | 0.00 | 72 | 1009.2 |
| 20260903015930 | 78 | 126 | 0.0 | 0.0 | 0.00 | 0.00 | 0.00 | 72 | 1009.3 |
| 20260903015426 | 79 | 126 | 0.0 | 0.0 | 0.00 | 0.00 | 0.00 | 71 | 1009.1 |
| 20260903014921 | 79 | 125 | 0.0 | 0.0 | 0.00 | 0.00 | 0.00 | 70 | 1009.0 |
| 20260903014415 | 79 | 126 | 0.0 | 0.0 | 0.00 | 0.00 | 0.00 | 70 | 1009.1 |
| 20260903013910 | 80 | 127 | 0.0 | 0.0 | 0.00 | 0.00 | 0.00 | 69 | 1008.9 |
| 20260903013410 | 80 | 127 | 0.0 | 0.0 | 0.00 | 0.00 | 0.00 | 69 | 1008.8 |
| 20260903012909 | 80 | 126 | 0.0 | 0.0 | 0.00 | 0.00 | 0.00 | 68 | 1008.8 |
| 20260903012408 | 81 | 128 | 0.0 | 0.0 | 0.00 | 0.00 | 0.00 | 67 | 1008.6 |
| 20260903011907 | 81 | 125 | 0.0 | 0.0 | 0.00 | 0.00 | 0.00 | 66 | 1008.7 |
| 20260903011402 | 82 | 126 | 0.0 | 0.0 | 0.00 | 0.00 | 0.00 | 65 | 1008.5 |
| 20260903010857 | 82 | 128 | 0.0 | 0.0 | 0.00 | 0.00 | 0.00 | 65 | 1008.5 |
| 20260903010353 | 82 | 128 | 0.0 | 0.0 | 0.00 | 0.00 | 0.00 | 64 | 1008.5 |
| 20260903005850 | 83 | 127 | 0.0 | 0.0 | 0.00 | 0.00 | 0.00 | 63 | 1008.5 |